[[{"header":{"parameterUnit":"m.s-1","parameterCategory":1,"la1":30.2992,"la2":30.254,"lo1":-89.0895,"lo2":-89.0443,"dy":0.0025,"dx":0.0025,"nx":19,"ny":19,"refTime":"2026-04-22T03:00:00:Z","depth":0,"parameterNumber":2,"parameterNumberName":"U-component_of_WINDS"},"data":[0,0,0,-4.6804,-4.6808,-4.7042,-4.7043,-4.7332,-4.7334,0,0,0,0,0,0,0,0,0,0,0,-4.6728,-4.673,-4.6803,-4.6809,-4.7042,-4.7043,-4.7331,-4.7334,0,0,0,0,0,0,0,0,0,0,0,-4.6727,-4.6729,-4.6732,-4.681,-4.7041,-4.7043,-4.7331,-4.7158,0,0,0,0,0,0,0,0,0,0,-4.6933,-4.6857,-4.6729,-4.6732,-4.6811,-4.7041,-4.7043,-4.715,-4.7169,-4.7222,0,-4.7267,0,-4.7305,-4.7353,-4.7354,0,0,0,-4.6814,-4.6842,-4.691,-4.6732,-4.6813,-4.7041,-4.6938,-4.7161,-4.7182,-4.7247,-4.7271,-4.7282,-4.731,-4.7355,-4.7356,-4.7643,-4.7644,0,0,-4.6801,-4.6767,-4.6895,-4.6924,-4.6886,-4.693,-4.6945,-4.7174,-4.7198,-4.7272,-4.7289,-4.7314,-4.7356,-4.7359,-4.7642,-4.7644,0,0,0,-4.676,-4.6758,-4.6821,-4.6911,-4.6954,-4.6937,-4.6954,-4.7188,-4.7211,-4.7292,-4.7318,-4.7358,-4.7362,-4.7641,-4.7643,-4.7663,0,0,0,-4.6753,-4.6734,-4.6815,-4.6796,-4.695,-4.7074,-4.6963,-4.7195,-4.7222,-4.7316,-4.7358,-4.7364,-4.764,-4.7642,-4.766,-4.7678,0,0,0,-4.6715,-4.673,-4.6761,-4.6794,-4.6893,-4.7071,-4.7108,-4.7202,-4.7238,-4.7354,-4.7365,-4.7639,-4.7642,-4.7657,-4.7674,-4.7743,0,0,0,-4.6665,-4.6777,-4.6761,-4.6897,-4.6891,-4.7082,-4.7106,-4.7251,-4.7353,-4.736,-4.764,-4.7643,-4.7657,-4.7671,-4.774,-4.7794,-4.7813,0,0,-4.6788,-4.6791,-4.6873,-4.6866,-4.7051,-4.7049,-4.7238,-4.7365,-4.7407,-4.7562,-4.757,-4.7661,-4.7674,-4.7742,-4.7938,-4.7954,0,0,0,-4.6901,-4.6959,-4.7016,-4.7111,-4.721,-4.7296,-4.7397,-4.7444,-4.7577,-4.748,-4.7707,-4.7715,-4.7757,-4.7784,-4.7797,-4.7835,-4.7654,-4.7654,-4.7654,-4.7024,-4.7073,-4.7212,-4.7288,-4.7381,-4.7484,-4.7564,-4.7644,-4.7667,-4.772,-4.7765,-4.7878,-4.7909,-4.7919,-4.7957,-4.7799,-4.7799,-4.78,-4.78,-4.7207,-4.7297,-4.7324,-4.7469,-4.7519,-4.7642,-4.7746,-4.7758,-4.788,-4.7848,-4.7887,-4.7846,-4.7934,-4.797,-4.7802,-4.7801,-4.7801,-4.7801,-4.7801,-4.7292,-4.7343,-4.7398,-4.7541,-4.7646,-4.7721,-4.7836,-4.7879,-4.792,-4.7959,-4.8011,-4.8011,-4.8015,-4.7981,-4.7982,-4.7982,-4.7982,-4.7983,-4.7983,-4.7357,-4.7419,-4.751,-4.7625,-4.7691,-4.7785,-4.789,-4.7958,-4.8043,-4.8065,-4.8066,-4.8082,-4.7935,-4.7895,-4.7989,-4.7988,-4.7987,-4.7987,-4.7986,-4.7521,-4.7491,-4.7631,-4.7698,-4.7837,-4.7938,-4.7992,-4.8125,-4.8187,-4.8243,-4.8252,-4.8136,-4.8142,-4.8132,-4.81,-4.8241,-4.8241,-4.8241,-4.8241,-4.7591,-4.7599,-4.7752,-4.7856,-4.7963,-4.8026,-4.8184,-4.8268,-4.835,-4.8391,-4.8378,-4.8339,-4.8327,-4.8341,-4.8326,-4.8296,-4.8485,-4.8485,-4.8486,-4.7694,-4.7714,-4.7839,-4.7918,-4.803,-4.8124,-4.8274,-4.8393,-4.848,-4.8496,-4.8424,-4.8414,-4.8353,-4.8331,-4.8342,-4.8318,-4.8265,0,0]},{"header":{"parameterUnit":"m.s-1","parameterCategory":1,"la1":30.2992,"la2":30.254,"lo1":-89.0895,"lo2":-89.0443,"dy":0.0025,"dx":0.0025,"nx":19,"ny":19,"refTime":"2026-04-22T03:00:00:Z","depth":0,"parameterNumber":3,"parameterNumberName":"V-component_of_WINDS"},"data":[0,0,0,3.522,3.5221,3.5295,3.5296,3.5372,3.5372,0,0,0,0,0,0,0,0,0,0,0,3.5187,3.5187,3.522,3.5221,3.5295,3.5296,3.5372,3.5372,0,0,0,0,0,0,0,0,0,0,0,3.5186,3.5187,3.5187,3.5221,3.5295,3.5296,3.5371,3.5322,0,0,0,0,0,0,0,0,0,0,3.5253,3.5212,3.5187,3.5187,3.5222,3.5295,3.5296,3.532,3.5325,3.533,0,3.5332,0,3.5353,3.5376,3.5376,0,0,0,3.5229,3.5208,3.5238,3.5187,3.5222,3.5295,3.5264,3.5323,3.5329,3.5337,3.5333,3.5336,3.5354,3.5376,3.5377,3.5377,3.5377,0,0,3.5225,3.5194,3.5233,3.5241,3.5228,3.5262,3.5266,3.5327,3.5321,3.5333,3.5338,3.5355,3.5377,3.5377,3.5377,3.5377,0,0,0,3.5208,3.5191,3.522,3.5237,3.5252,3.5264,3.5269,3.5318,3.533,3.5339,3.5356,3.5377,3.5378,3.5378,3.5377,3.5327,0,0,0,3.5206,3.5181,3.5217,3.5199,3.525,3.5286,3.5258,3.5326,3.5334,3.5356,3.5377,3.5378,3.5378,3.5377,3.533,3.5309,0,0,0,3.5185,3.5178,3.5185,3.5197,3.5228,3.5286,3.5302,3.5328,3.5344,3.5376,3.5379,3.5379,3.5378,3.5332,3.5312,3.5299,0,0,0,3.5155,3.514,3.5184,3.5174,3.5227,3.5254,3.5302,3.5323,3.5346,3.5377,3.5378,3.5377,3.5332,3.5315,3.5301,3.5282,3.5271,0,0,3.5119,3.5135,3.5132,3.5173,3.5184,3.5245,3.525,3.53,3.5332,3.536,3.536,3.5329,3.5313,3.53,3.5223,3.5214,0,0,0,3.511,3.5107,3.5117,3.5136,3.5174,3.5204,3.5257,3.5275,3.5301,3.534,3.5322,3.5313,3.5307,3.5299,3.5292,3.5288,3.5372,3.5373,3.5373,3.5014,3.5055,3.5052,3.5102,3.512,3.5174,3.5193,3.5227,3.5264,3.5258,3.5267,3.5215,3.5205,3.52,3.5195,3.5261,3.526,3.526,3.526,3.4965,3.4967,3.5016,3.503,3.5073,3.5086,3.5137,3.5163,3.5181,3.5212,3.5209,3.524,3.5189,3.5187,3.5257,3.5257,3.5258,3.5258,3.5258,3.4907,3.4915,3.4937,3.4969,3.4989,3.504,3.5054,3.5094,3.5131,3.5127,3.514,3.5141,3.5147,3.5131,3.513,3.513,3.513,3.513,3.513,3.4838,3.4865,3.4872,3.491,3.4927,3.4954,3.5008,3.5026,3.5055,3.5083,3.5083,3.512,3.5176,3.5189,3.5127,3.5128,3.5128,3.5128,3.5128,3.4773,3.4793,3.4805,3.4822,3.4869,3.4885,3.4935,3.4967,3.4988,3.4994,3.5031,3.5066,3.5086,3.5092,3.5103,3.5022,3.5022,3.5022,3.5022,3.4724,3.4737,3.4757,3.4781,3.4809,3.4855,3.4866,3.4906,3.4952,3.4967,3.4985,3.5003,3.5007,3.5024,3.5032,3.5042,3.4948,3.4948,3.4948,3.4686,3.4703,3.4705,3.4749,3.4789,3.4821,3.4833,3.4858,3.4915,3.4946,3.498,3.4983,3.5013,3.502,3.5052,3.5063,3.5084,0,0]}]]